Showing default

ION SCV-011, 56957

Orbit data source: Space-Track

ION SCV-011, 56957 is a payload satellite owned by D-ORBIT (IT) in SSO that was launched on Mon, 12 Jun 2023 UTC via an FALCON 9 launch vehicle from the Air Force Western Test Range (AFWTR). Payload-class satellites include a variety of spacecraft equipped with specific instruments for various scientific and technological missions. These include communications satellites like Starlink; space stations such as the ISS; scientific satellites like the Hubble; Earth observation satellites from companies like Planet Labs, Umbra, and HawkEye 360; GPS; miniature CubeSats for education and research; and military/defense satellites.

Loading next visibility...
Identifier
56957, 2023-084AB
Orbit
SSO
Country
Flag of ITIT
Related business
Manufacturer
D-ORBIT
Mission
Operational Commercial Technology
Bus & Motor
ION-SC, PM200
Mass
220 kg wet, 150 kg dry
Launch date (UTC)
2023-06-12 (2 years ago)
Launch vehicle
FALCON 9
Launch site
Air Force Western Test Range (AFWTR)
Object type
Payload
Rocket body
Debris
Shape & HBR
Box, 0.2 m
Radar Cross Section
0.240 m², Medium (>0.1 m² and < 1m²)

Expand to show TLE details & history
Last TLE update: 13 hours ago

TLE from 13 hours ago
0 ION SCV-011
1 56957U 23084AB  25242.16425704  .00008334  00000-0  34198-3 0  9999
2 56957  98.1212  38.6194 0007294 334.9148  25.1733 15.24503106121408
Epoch: 2025-08-30T03:56Z
TLE epoch observation values (Epoch: 2025-08-30T03:56:31.808Z)
Latitude
0.00008°
Longitude
0.88437°
Altitude
490.817 km
Speed
7.622 km/s
True Right ascension
02h 34m 28s
True Declination
0° 00' 00"
Sunlit
Object was in full shadow at epoch
Visualization orbit readout
Latitude
Unknown
Longitude
Unknown
Altitude
Unknown
Speed
Unknown
Apparent Right ascension
Unknown
Apparent Declination
Unknown
Sunlit
N/A
Visualization observer readout
Local Sidereal Time
08:49:25
Azimuth
Unknown
Elevation
Unknown
Doppler factor
Unknown
Orbital elements
Apogee altitude
494.279 km
Perigee altitude
484.261 km
Semi-major axis
6,867.407 km
Eccentricity
0.00073
Inclination
98.1212°
RAAN
38.6194°
Arg. of periapsis
334.9148°
True anomaly
25.20888°
Mean anomaly
25.1733°
Eccentric anomaly
25.19109°
Mean motion
3.81377 °/min
Orbital period
94.39 mins
BSTAR
0.00034198
Loading maneuver chart data...
Computing Atmospheric mass density...
Loading historical data...
Loading historical data...
Loading historical data...
Loading historical data...
Loading historical data...
Loading historical data...
Loading historical data...

Documentation

Showing up to 5 results
|